| time (UTC) | temp C | wind direction | speed KPH | gust KPH | rain 1hr cm | rain 24hr cm | rain mn cm | humidity % | barometer mb |
| 20260506021521 | 16 | 174 | 1.6 | 3.2 | 0.00 | 0.00 | 0.00 | 74 | 1015.3 |
| 20260506021011 | 16 | 149 | 0.0 | 3.2 | 0.00 | 0.00 | 0.00 | 73 | 1015.3 |
| 20260506020508 | 16 | 130 | 1.6 | 3.2 | 0.00 | 0.00 | 0.00 | 72 | 1015.3 |
| 20260506020025 | 16 | 213 | 1.6 | 4.8 | 0.00 | 0.00 | 0.00 | 72 | 1015.3 |
| 20260506015501 | 16 | 188 | 0.0 | 4.8 | 0.00 | 0.00 | 0.00 | 72 | 1015.3 |
| 20260506015004 | 16 | 242 | 0.0 | 4.8 | 0.00 | 0.00 | 0.00 | 71 | 1015.3 |
| 20260506014504 | 16 | 156 | 1.6 | 11.3 | 0.00 | 0.00 | 0.00 | 71 | 1015.3 |
| 20260506014004 | 16 | 207 | 0.0 | 11.3 | 0.00 | 0.00 | 0.00 | 72 | 1015.3 |
| 20260506013504 | 16 | 200 | 1.6 | 8.0 | 0.00 | 0.00 | 0.00 | 71 | 1015.3 |
| 20260506013007 | 16 | 142 | 0.0 | 6.4 | 0.00 | 0.00 | 0.00 | 72 | 1015.3 |
| 20260506012503 | 16 | 178 | 0.0 | 6.4 | 0.00 | 0.00 | 0.00 | 72 | 1015.3 |
| 20260506012008 | 16 | 194 | 0.0 | 6.4 | 0.00 | 0.00 | 0.00 | 73 | 1015.3 |
| 20260506011514 | 16 | 165 | 1.6 | 6.4 | 0.00 | 0.00 | 0.00 | 71 | 1015.3 |
| 20260506011004 | 16 | 215 | 1.6 | 8.0 | 0.00 | 0.00 | 0.00 | 73 | 1015.5 |
| 20260506010504 | 16 | 157 | 4.8 | 8.0 | 0.00 | 0.00 | 0.00 | 72 | 1015.4 |
| 20260506010016 | 16 | 166 | 3.2 | 8.0 | 0.00 | 0.00 | 0.00 | 71 | 1015.4 |
| 20260506005500 | 16 | 166 | 0.0 | 4.8 | 0.00 | 0.00 | 0.00 | 71 | 1015.3 |
| 20260506005000 | 16 | 172 | 1.6 | 6.4 | 0.00 | 0.00 | 0.00 | 72 | 1015.4 |
| 20260506004505 | 16 | 130 | 1.6 | 6.4 | 0.00 | 0.00 | 0.00 | 72 | 1015.4 |
| 20260506004006 | 16 | 294 | 3.2 | 6.4 | 0.00 | 0.00 | 0.00 | 71 | 1015.5 |
| 20260506003507 | 16 | 277 | 3.2 | 4.8 | 0.00 | 0.00 | 0.00 | 71 | 1015.6 |
| 20260506003004 | 16 | 295 | 1.6 | 8.0 | 0.00 | 0.00 | 0.00 | 71 | 1015.6 |
| 20260506002503 | 16 | 308 | 0.0 | 8.0 | 0.00 | 0.00 | 0.00 | 72 | 1015.6 |
| 20260506002003 | 16 | 333 | 3.2 | 9.7 | 0.00 | 0.00 | 0.00 | 71 | 1015.6 |
| 20260506001509 | 16 | 302 | 1.6 | 11.3 | 0.00 | 0.00 | 0.00 | 72 | 1015.6 |
| 20260506001004 | 16 | 281 | 3.2 | 11.3 | 0.00 | 0.00 | 0.00 | 72 | 1015.6 |
| 20260506000507 | 16 | 230 | 3.2 | 6.4 | 0.00 | 0.00 | 0.00 | 72 | 1015.7 |
| 20260506000014 | 16 | 296 | 1.6 | 6.4 | 0.00 | 0.00 | 0.00 | 71 | 1015.8 |
| 20260505235508 | 16 | 281 | 3.2 | 11.3 | 0.00 | 0.00 | 0.00 | 71 | 1015.8 |
| 20260505235006 | 16 | 257 | 3.2 | 11.3 | 0.00 | 0.00 | 0.00 | 72 | 1015.8 |
| 20260505234519 | 16 | 285 | 3.2 | 9.7 | 0.00 | 0.00 | 0.00 | 72 | 1015.9 |
| 20260505234004 | 16 | 277 | 3.2 | 11.3 | 0.00 | 0.00 | 0.00 | 72 | 1015.9 |
| 20260505233508 | 16 | 335 | 4.8 | 9.7 | 0.00 | 0.00 | 0.00 | 71 | 1016.0 |
| 20260505233004 | 16 | 173 | 1.6 | 9.7 | 0.00 | 0.00 | 0.00 | 73 | 1016.1 |
| 20260505232504 | 16 | 344 | 3.2 | 9.7 | 0.00 | 0.00 | 0.00 | 72 | 1016.1 |
| 20260505232004 | 16 | 292 | 4.8 | 11.3 | 0.00 | 0.00 | 0.00 | 71 | 1016.0 |
| 20260505231512 | 16 | 240 | 4.8 | 11.3 | 0.00 | 0.00 | 0.00 | 70 | 1016.0 |
| 20260505231005 | 16 | 199 | 3.2 | 9.7 | 0.00 | 0.00 | 0.00 | 70 | 1016.0 |
| 20260505230504 | 16 | 350 | 0.0 | 4.8 | 0.00 | 0.00 | 0.00 | 70 | 1016.0 |
| 20260505230021 | 16 | 225 | 1.6 | 9.7 | 0.00 | 0.00 | 0.00 | 70 | 1016.1 |
| 20260505225509 | 16 | 278 | 1.6 | 9.7 | 0.00 | 0.00 | 0.00 | 71 | 1016.2 |
| 20260505225008 | 16 | 317 | 1.6 | 11.3 | 0.00 | 0.00 | 0.00 | 71 | 1016.3 |
| 20260505224518 | 16 | 271 | 1.6 | 11.3 | 0.00 | 0.00 | 0.00 | 72 | 1016.3 |
| 20260505224007 | 16 | 264 | 4.8 | 11.3 | 0.00 | 0.00 | 0.00 | 70 | 1016.3 |
| 20260505223510 | 16 | 61 | 1.6 | 11.3 | 0.00 | 0.00 | 0.00 | 71 | 1016.4 |
| 20260505223020 | 16 | 309 | 3.2 | 6.4 | 0.00 | 0.00 | 0.00 | 72 | 1016.4 |
| 20260505222507 | 16 | 317 | 3.2 | 11.3 | 0.00 | 0.00 | 0.00 | 70 | 1016.4 |
| 20260505222004 | 16 | 271 | 3.2 | 11.3 | 0.00 | 0.00 | 0.00 | 72 | 1016.6 |
| 20260505221504 | 16 | 286 | 1.6 | 6.4 | 0.00 | 0.00 | 0.00 | 73 | 1016.6 |
| 20260505221003 | 16 | 273 | 1.6 | 8.0 | 0.00 | 0.00 | 0.00 | 71 | 1016.6 |
| 20260505220503 | 15 | 271 | 3.2 | 9.7 | 0.00 | 0.00 | 0.00 | 73 | 1016.7 |
| 20260505220009 | 15 | 312 | 3.2 | 9.7 | 0.00 | 0.00 | 0.00 | 72 | 1016.8 |
| 20260505215508 | 15 | 286 | 4.8 | 9.7 | 0.00 | 0.00 | 0.00 | 72 | 1016.8 |
| 20260505215004 | 15 | 194 | 3.2 | 8.0 | 0.00 | 0.00 | 0.00 | 73 | 1016.8 |
| 20260505214517 | 15 | 220 | 3.2 | 9.7 | 0.00 | 0.00 | 0.00 | 73 | 1016.7 |
| 20260505214011 | 15 | 272 | 3.2 | 9.7 | 0.00 | 0.00 | 0.00 | 73 | 1016.7 |
| 20260505213504 | 15 | 217 | 3.2 | 6.4 | 0.00 | 0.00 | 0.00 | 74 | 1016.7 |
| 20260505213028 | 16 | 255 | 1.6 | 4.8 | 0.00 | 0.00 | 0.00 | 72 | 1016.8 |
| 20260505212510 | 16 | 53 | 1.6 | 6.4 | 0.00 | 0.00 | 0.00 | 73 | 1016.8 |
| 20260505212011 | 15 | 271 | 1.6 | 6.4 | 0.00 | 0.00 | 0.00 | 73 | 1016.8 |
| 20260505211524 | 15 | 314 | 1.6 | 9.7 | 0.00 | 0.00 | 0.00 | 73 | 1016.7 |
| 20260505211003 | 15 | 286 | 3.2 | 9.7 | 0.00 | 0.00 | 0.00 | 73 | 1016.8 |
| 20260505210503 | 15 | 281 | 1.6 | 9.7 | 0.00 | 0.00 | 0.00 | 74 | 1016.9 |
| 20260505210012 | 15 | 298 | 3.2 | 9.7 | 0.00 | 0.00 | 0.00 | 73 | 1016.9 |
| 20260505205506 | 16 | 316 | 1.6 | 3.2 | 0.00 | 0.00 | 0.00 | 73 | 1017.0 |
| 20260505205004 | 15 | 186 | 1.6 | 3.2 | 0.00 | 0.00 | 0.00 | 75 | 1017.0 |
| 20260505204514 | 15 | 163 | 1.6 | 6.4 | 0.00 | 0.00 | 0.00 | 74 | 1017.0 |
| 20260505204008 | 15 | 225 | 1.6 | 6.4 | 0.00 | 0.00 | 0.00 | 74 | 1017.0 |
| 20260505203510 | 15 | 262 | 0.0 | 6.4 | 0.00 | 0.00 | 0.00 | 75 | 1017.0 |
| 20260505203024 | 15 | 305 | 1.6 | 4.8 | 0.00 | 0.00 | 0.00 | 75 | 1017.0 |
| 20260505202507 | 15 | 287 | 1.6 | 4.8 | 0.00 | 0.00 | 0.00 | 76 | 1017.0 |
| 20260505202009 | 15 | 257 | 1.6 | 3.2 | 0.00 | 0.00 | 0.00 | 75 | 1017.0 |
| 20260505201530 | 15 | 337 | 0.0 | 9.7 | 0.00 | 0.00 | 0.00 | 76 | 1016.9 |
| 20260505201011 | 14 | 297 | 0.0 | 9.7 | 0.00 | 0.00 | 0.00 | 77 | 1016.8 |
| 20260505200512 | 14 | 210 | 1.6 | 3.2 | 0.00 | 0.00 | 0.00 | 76 | 1016.9 |
| 20260505200026 | 15 | 324 | 1.6 | 4.8 | 0.00 | 0.00 | 0.00 | 76 | 1016.9 |
| 20260505195504 | 14 | 272 | 0.0 | 4.8 | 0.00 | 0.00 | 0.00 | 77 | 1016.9 |
| 20260505195005 | 14 | 302 | 1.6 | 6.4 | 0.00 | 0.00 | 0.00 | 77 | 1017.0 |
| 20260505194509 | 14 | 273 | 3.2 | 6.4 | 0.00 | 0.00 | 0.00 | 77 | 1016.9 |
| 20260505194010 | 14 | 250 | 3.2 | 6.4 | 0.00 | 0.00 | 0.00 | 77 | 1016.8 |
| 20260505193506 | 14 | 71 | 0.0 | 6.4 | 0.00 | 0.00 | 0.00 | 77 | 1016.8 |
| 20260505193015 | 14 | 276 | 3.2 | 8.0 | 0.00 | 0.00 | 0.00 | 76 | 1016.8 |
| 20260505192512 | 15 | 200 | 0.0 | 8.0 | 0.00 | 0.00 | 0.00 | 78 | 1016.8 |
| 20260505192007 | 14 | 225 | 0.0 | 4.8 | 0.00 | 0.00 | 0.00 | 79 | 1016.8 |
| 20260505191519 | 13 | 180 | 1.6 | 4.8 | 0.00 | 0.00 | 0.00 | 79 | 1016.8 |
| 20260505191008 | 13 | 223 | 1.6 | 3.2 | 0.00 | 0.00 | 0.00 | 79 | 1016.8 |
| 20260505190510 | 13 | 180 | 1.6 | 11.3 | 0.00 | 0.00 | 0.00 | 79 | 1016.8 |
| 20260505190025 | 13 | 195 | 3.2 | 11.3 | 0.00 | 0.00 | 0.00 | 79 | 1016.8 |
| 20260505185514 | 13 | 200 | 3.2 | 6.4 | 0.00 | 0.00 | 0.00 | 79 | 1016.7 |
| 20260505185010 | 13 | 186 | 1.6 | 6.4 | 0.00 | 0.00 | 0.00 | 81 | 1016.7 |
| 20260505184534 | 13 | 178 | 1.6 | 9.7 | 0.00 | 0.00 | 0.00 | 80 | 1016.7 |
| 20260505184007 | 13 | 159 | 1.6 | 9.7 | 0.00 | 0.00 | 0.00 | 81 | 1016.7 |
| 20260505183504 | 13 | 193 | 4.8 | 9.7 | 0.00 | 0.00 | 0.00 | 80 | 1016.7 |
| 20260505183019 | 13 | 200 | 1.6 | 6.4 | 0.00 | 0.00 | 0.00 | 80 | 1016.8 |
| 20260505182507 | 13 | 188 | 1.6 | 8.0 | 0.00 | 0.00 | 0.00 | 81 | 1016.7 |
| 20260505182012 | 13 | 140 | 3.2 | 8.0 | 0.00 | 0.00 | 0.00 | 80 | 1016.6 |
| 20260505181520 | 13 | 184 | 3.2 | 8.0 | 0.00 | 0.00 | 0.00 | 80 | 1016.6 |
| 20260505181009 | 13 | 186 | 3.2 | 8.0 | 0.00 | 0.00 | 0.00 | 81 | 1016.7 |
| 20260505180511 | 13 | 194 | 0.0 | 4.8 | 0.00 | 0.00 | 0.00 | 80 | 1016.7 |
| 20260505180024 | 13 | 199 | 0.0 | 3.2 | 0.00 | 0.00 | 0.00 | 81 | 1016.6 |
| 20260505175509 | 13 | 317 | 0.0 | 3.2 | 0.00 | 0.00 | 0.00 | 81 | 1016.6 |
| 20260505175007 | 13 | 286 | 1.6 | 4.8 | 0.00 | 0.00 | 0.00 | 81 | 1016.6 |
| 20260505174535 | 13 | 329 | 1.6 | 4.8 | 0.00 | 0.00 | 0.00 | 82 | 1016.6 |
| 20260505174010 | 12 | 108 | 0.0 | 3.2 | 0.00 | 0.00 | 0.00 | 82 | 1016.6 |
| 20260505173509 | 12 | 286 | 1.6 | 3.2 | 0.00 | 0.00 | 0.00 | 82 | 1016.6 |
| 20260505173029 | 12 | 296 | 0.0 | 3.2 | 0.00 | 0.00 | 0.00 | 82 | 1016.6 |
| 20260505172504 | 12 | 186 | 0.0 | 3.2 | 0.00 | 0.00 | 0.00 | 82 | 1016.5 |
| 20260505172010 | 13 | 188 | 0.0 | 3.2 | 0.00 | 0.00 | 0.00 | 83 | 1016.5 |
| 20260505171515 | 12 | 186 | 0.0 | 3.2 | 0.00 | 0.00 | 0.00 | 82 | 1016.5 |
| 20260505171007 | 12 | 188 | 0.0 | 3.2 | 0.00 | 0.00 | 0.00 | 82 | 1016.5 |
| 20260505170508 | 12 | 289 | 1.6 | 3.2 | 0.00 | 0.00 | 0.00 | 82 | 1016.4 |
| 20260505170022 | 12 | 197 | 0.0 | 4.8 | 0.00 | 0.00 | 0.00 | 82 | 1016.4 |
| 20260505165503 | 12 | 279 | 0.0 | 4.8 | 0.00 | 0.00 | 0.00 | 83 | 1016.4 |
| 20260505165004 | 12 | 253 | 0.0 | 3.2 | 0.00 | 0.00 | 0.00 | 82 | 1016.3 |
| 20260505164503 | 12 | 254 | 0.0 | 3.2 | 0.00 | 0.00 | 0.00 | 82 | 1016.3 |
| 20260505164003 | 12 | 184 | 0.0 | 1.6 | 0.00 | 0.00 | 0.00 | 83 | 1016.3 |
| 20260505163504 | 12 | 210 | 0.0 | 1.6 | 0.00 | 0.00 | 0.00 | 82 | 1016.3 |
| 20260505163004 | 12 | 131 | 0.0 | 0.0 | 0.00 | 0.00 | 0.00 | 83 | 1016.3 |
| 20260505162504 | 12 | 131 | 0.0 | 3.2 | 0.00 | 0.00 | 0.00 | 83 | 1016.3 |
| 20260505162004 | 12 | 260 | 0.0 | 3.2 | 0.00 | 0.00 | 0.00 | 83 | 1016.2 |
| 20260505161505 | 12 | 221 | 0.0 | 3.2 | 0.00 | 0.00 | 0.00 | 83 | 1016.2 |
| 20260505161005 | 12 | 215 | 0.0 | 3.2 | 0.00 | 0.00 | 0.00 | 83 | 1016.1 |
| 20260505160504 | 12 | 352 | 0.0 | 3.2 | 0.00 | 0.00 | 0.00 | 83 | 1016.1 |
| 20260505153006 | 12 | 190 | 0.0 | 4.8 | 0.00 | 0.00 | 0.00 | 84 | 1016.0 |
| 20260505152506 | 12 | 209 | 0.0 | 3.2 | 0.00 | 0.00 | 0.00 | 84 | 1016.0 |
| 20260505152005 | 12 | 212 | 0.0 | 3.2 | 0.00 | 0.00 | 0.00 | 84 | 1016.0 |
| 20260505151506 | 12 | 232 | 0.0 | 3.2 | 0.00 | 0.00 | 0.00 | 84 | 1016.0 |
| 20260505151003 | 12 | 234 | 1.6 | 3.2 | 0.00 | 0.00 | 0.00 | 84 | 1015.9 |
| 20260505150504 | 12 | 150 | 0.0 | 0.0 | 0.00 | 0.00 | 0.00 | 84 | 1015.8 |
| 20260505140507 | 12 | 163 | 0.0 | 3.2 | 0.00 | 0.00 | 0.00 | 85 | 1015.3 |
| 20260505125008 | 11 | 171 | 0.0 | 3.2 | 0.00 | 0.00 | 0.00 | 85 | 1014.5 |
| 20260505124514 | 12 | 212 | 0.0 | 3.2 | 0.00 | 0.00 | 0.00 | 85 | 1014.5 |
| 20260505124007 | 12 | 212 | 0.0 | 8.0 | 0.00 | 0.00 | 0.00 | 85 | 1014.5 |
| 20260505123507 | 11 | 212 | 0.0 | 8.0 | 0.00 | 0.00 | 0.00 | 85 | 1014.4 |
| 20260505123013 | 11 | 180 | 1.6 | 4.8 | 0.00 | 0.00 | 0.00 | 85 | 1014.5 |
| 20260505122504 | 12 | 192 | 1.6 | 4.8 | 0.00 | 0.00 | 0.00 | 85 | 1014.4 |
| 20260505122004 | 11 | 233 | 0.0 | 3.2 | 0.00 | 0.00 | 0.00 | 86 | 1014.4 |
| 20260505121517 | 11 | 204 | 0.0 | 1.6 | 0.00 | 0.00 | 0.00 | 86 | 1014.3 |
| 20260505121003 | 11 | 203 | 0.0 | 4.8 | 0.00 | 0.00 | 0.00 | 86 | 1014.3 |
| 20260505120508 | 11 | 204 | 1.6 | 4.8 | 0.00 | 0.00 | 0.00 | 86 | 1014.3 |
| 20260505120013 | 11 | 205 | 1.6 | 4.8 | 0.00 | 0.00 | 0.00 | 85 | 1014.3 |
| 20260505115504 | 11 | 207 | 0.0 | 4.8 | 0.00 | 0.00 | 0.00 | 85 | 1014.2 |
| 20260505115009 | 11 | 207 | 0.0 | 9.7 | 0.00 | 0.00 | 0.00 | 85 | 1014.3 |
| 20260505114519 | 11 | 186 | 4.8 | 8.0 | 0.00 | 0.00 | 0.00 | 85 | 1014.2 |
| 20260505114007 | 11 | 156 | 0.0 | 6.4 | 0.00 | 0.00 | 0.00 | 85 | 1014.3 |
| 20260505113509 | 11 | 202 | 0.0 | 6.4 | 0.00 | 0.00 | 0.00 | 85 | 1014.3 |
| 20260505113020 | 11 | 184 | 1.6 | 4.8 | 0.00 | 0.00 | 0.00 | 85 | 1014.3 |
| 20260505112507 | 11 | 245 | 0.0 | 9.7 | 0.00 | 0.00 | 0.00 | 86 | 1014.2 |
| 20260505112007 | 11 | 218 | 4.8 | 9.7 | 0.00 | 0.00 | 0.00 | 85 | 1014.2 |
| 20260505111518 | 11 | 192 | 1.6 | 4.8 | 0.00 | 0.00 | 0.00 | 85 | 1014.2 |
| 20260505111006 | 11 | 200 | 1.6 | 6.4 | 0.00 | 0.00 | 0.00 | 85 | 1014.2 |
| 20260505110507 | 11 | 224 | 1.6 | 6.4 | 0.00 | 0.00 | 0.00 | 85 | 1014.2 |
| 20260505102006 | 11 | 211 | 0.0 | 12.9 | 0.00 | 0.00 | 0.00 | 86 | 1013.9 |
| 20260505101519 | 11 | 213 | 4.8 | 12.9 | 0.00 | 0.00 | 0.00 | 86 | 1013.9 |
| 20260505101008 | 11 | 223 | 1.6 | 12.9 | 0.00 | 0.00 | 0.00 | 86 | 1013.8 |
| 20260505100507 | 11 | 222 | 1.6 | 12.9 | 0.00 | 0.00 | 0.00 | 86 | 1013.8 |
| 20260505100021 | 11 | 184 | 1.6 | 8.0 | 0.00 | 0.00 | 0.00 | 86 | 1013.8 |
| 20260505095507 | 11 | 213 | 1.6 | 11.3 | 0.00 | 0.00 | 0.00 | 86 | 1013.8 |
| 20260505095007 | 11 | 206 | 3.2 | 11.3 | 0.00 | 0.00 | 0.00 | 86 | 1013.8 |
| 20260505094520 | 11 | 186 | 1.6 | 14.5 | 0.00 | 0.00 | 0.00 | 86 | 1013.8 |
| 20260505094008 | 11 | 204 | 1.6 | 14.5 | 0.00 | 0.00 | 0.00 | 86 | 1013.8 |
| 20260505093507 | 11 | 186 | 3.2 | 14.5 | 0.00 | 0.00 | 0.00 | 87 | 1013.7 |
| 20260505093026 | 11 | 221 | 4.8 | 9.7 | 0.00 | 0.00 | 0.00 | 87 | 1013.7 |
| 20260505092507 | 11 | 246 | 1.6 | 9.7 | 0.00 | 0.00 | 0.00 | 87 | 1013.7 |
| 20260505092008 | 11 | 244 | 3.2 | 11.3 | 0.00 | 0.00 | 0.00 | 87 | 1013.7 |
| 20260505091503 | 11 | 219 | 0.0 | 11.3 | 0.00 | 0.00 | 0.00 | 87 | 1013.7 |
| 20260505091004 | 11 | 227 | 3.2 | 6.4 | 0.00 | 0.00 | 0.00 | 87 | 1013.6 |
| 20260505090504 | 11 | 222 | 0.0 | 6.4 | 0.00 | 0.00 | 0.00 | 87 | 1013.6 |
| 20260505090004 | 11 | 192 | 1.6 | 11.3 | 0.00 | 0.00 | 0.00 | 87 | 1013.5 |
| 20260505085504 | 11 | 194 | 3.2 | 11.3 | 0.00 | 0.00 | 0.00 | 87 | 1013.5 |
| 20260505085003 | 11 | 207 | 3.2 | 6.4 | 0.00 | 0.00 | 0.00 | 87 | 1013.5 |
| 20260505084508 | 11 | 181 | 0.0 | 8.0 | 0.00 | 0.00 | 0.00 | 87 | 1013.5 |
| 20260505084008 | 11 | 216 | 3.2 | 8.0 | 0.00 | 0.00 | 0.00 | 87 | 1013.4 |
| 20260505083507 | 11 | 180 | 0.0 | 6.4 | 0.00 | 0.00 | 0.00 | 87 | 1013.4 |
| 20260505083006 | 11 | 169 | 1.6 | 9.7 | 0.00 | 0.00 | 0.00 | 87 | 1013.4 |
| 20260505082500 | 11 | 197 | 0.0 | 9.7 | 0.00 | 0.00 | 0.00 | 88 | 1013.4 |
| 20260505082003 | 11 | 200 | 0.0 | 3.2 | 0.00 | 0.00 | 0.00 | 88 | 1013.4 |
| 20260505081505 | 11 | 181 | 0.0 | 3.2 | 0.00 | 0.00 | 0.00 | 88 | 1013.4 |
| 20260505081007 | 11 | 180 | 0.0 | 3.2 | 0.00 | 0.00 | 0.00 | 88 | 1013.3 |
| 20260505080502 | 11 | 191 | 0.0 | 4.8 | 0.00 | 0.00 | 0.00 | 88 | 1013.3 |
| 20260505080004 | 11 | 213 | 0.0 | 4.8 | 0.00 | 0.00 | 0.00 | 88 | 1013.3 |
| 20260505075502 | 11 | 207 | 0.0 | 3.2 | 0.00 | 0.00 | 0.00 | 88 | 1013.3 |
| 20260505075003 | 11 | 213 | 0.0 | 3.2 | 0.00 | 0.00 | 0.00 | 87 | 1013.2 |
| 20260505074508 | 11 | 213 | 0.0 | 4.8 | 0.00 | 0.00 | 0.00 | 87 | 1013.2 |
| 20260505074003 | 11 | 218 | 0.0 | 4.8 | 0.00 | 0.00 | 0.00 | 87 | 1013.1 |
| 20260505073504 | 11 | 161 | 0.0 | 1.6 | 0.00 | 0.00 | 0.00 | 87 | 1013.1 |
| 20260505073012 | 11 | 190 | 0.0 | 3.2 | 0.00 | 0.00 | 0.00 | 87 | 1013.0 |
| 20260505072507 | 11 | 194 | 1.6 | 3.2 | 0.00 | 0.00 | 0.00 | 87 | 1012.9 |
| 20260505072006 | 11 | 210 | 0.0 | 3.2 | 0.00 | 0.00 | 0.00 | 86 | 1012.9 |
| 20260505071503 | 11 | 198 | 1.6 | 6.4 | 0.00 | 0.00 | 0.00 | 86 | 1012.8 |
| 20260505071003 | 11 | 202 | 1.6 | 6.4 | 0.00 | 0.00 | 0.00 | 86 | 1012.8 |
| 20260505070503 | 11 | 221 | 0.0 | 3.2 | 0.00 | 0.00 | 0.00 | 86 | 1012.7 |
| 20260505070006 | 11 | 221 | 0.0 | 3.2 | 0.00 | 0.00 | 0.00 | 86 | 1012.7 |
| 20260505065502 | 11 | 221 | 0.0 | 4.8 | 0.00 | 0.00 | 0.00 | 86 | 1012.7 |
| 20260505065005 | 11 | 207 | 1.6 | 6.4 | 0.00 | 0.00 | 0.00 | 86 | 1012.6 |
| 20260505064509 | 11 | 198 | 0.0 | 6.4 | 0.00 | 0.00 | 0.00 | 86 | 1012.6 |
| 20260505064002 | 12 | 215 | 0.0 | 6.4 | 0.00 | 0.00 | 0.00 | 86 | 1012.6 |
| 20260505063504 | 12 | 205 | 1.6 | 8.0 | 0.00 | 0.00 | 0.00 | 85 | 1012.6 |
| 20260505063007 | 12 | 198 | 1.6 | 8.0 | 0.00 | 0.00 | 0.00 | 85 | 1012.5 |
| 20260505062505 | 12 | 184 | 1.6 | 8.0 | 0.00 | 0.00 | 0.00 | 85 | 1012.5 |
| 20260505062006 | 12 | 192 | 0.0 | 3.2 | 0.00 | 0.00 | 0.00 | 85 | 1012.4 |
| 20260505061515 | 12 | 186 | 0.0 | 8.0 | 0.00 | 0.00 | 0.00 | 85 | 1012.3 |
| 20260505061006 | 12 | 247 | 0.0 | 8.0 | 0.00 | 0.00 | 0.00 | 85 | 1012.2 |
| 20260505060507 | 12 | 193 | 1.6 | 6.4 | 0.00 | 0.00 | 0.00 | 85 | 1012.2 |
| 20260505060011 | 12 | 212 | 3.2 | 4.8 | 0.00 | 0.00 | 0.00 | 85 | 1012.2 |
| 20260505055503 | 12 | 195 | 1.6 | 3.2 | 0.00 | 0.00 | 0.00 | 84 | 1012.2 |
| 20260505055003 | 12 | 202 | 0.0 | 4.8 | 0.00 | 0.00 | 0.00 | 84 | 1012.2 |
| 20260505054503 | 12 | 207 | 0.0 | 8.0 | 0.00 | 0.00 | 0.00 | 84 | 1012.1 |
| 20260505054004 | 12 | 225 | 1.6 | 12.9 | 0.00 | 0.00 | 0.00 | 83 | 1012.0 |
| 20260505053503 | 12 | 209 | 6.4 | 12.9 | 0.00 | 0.00 | 0.00 | 83 | 1012.1 |
| 20260505053008 | 12 | 167 | 3.2 | 11.3 | 0.00 | 0.00 | 0.00 | 83 | 1012.0 |
| 20260505052503 | 12 | 211 | 3.2 | 11.3 | 0.00 | 0.00 | 0.00 | 83 | 1012.0 |
| 20260505052003 | 12 | 191 | 3.2 | 8.0 | 0.00 | 0.00 | 0.00 | 83 | 1012.0 |
| 20260505051514 | 12 | 198 | 3.2 | 8.0 | 0.00 | 0.00 | 0.00 | 82 | 1011.9 |
| 20260505051007 | 12 | 216 | 3.2 | 8.0 | 0.00 | 0.00 | 0.00 | 82 | 1012.0 |
| 20260505050510 | 12 | 208 | 0.0 | 8.0 | 0.00 | 0.00 | 0.00 | 82 | 1011.9 |
| 20260505041508 | 15 | 225 | 0.0 | 9.7 | 0.00 | 0.00 | 0.00 | 74 | 1011.0 |
| 20260505041005 | 15 | 180 | 1.6 | 6.4 | 0.00 | 0.00 | 0.00 | 74 | 1011.0 |
| 20260505040506 | 15 | 203 | 1.6 | 6.4 | 0.00 | 0.00 | 0.00 | 73 | 1011.0 |
| 20260505040014 | 15 | 220 | 0.0 | 3.2 | 0.00 | 0.00 | 0.00 | 73 | 1010.8 |
| 20260505035508 | 16 | 207 | 0.0 | 3.2 | 0.00 | 0.00 | 0.00 | 72 | 1010.7 |
| 20260505035008 | 16 | 203 | 1.6 | 3.2 | 0.00 | 0.00 | 0.00 | 72 | 1010.7 |
| 20260505034518 | 16 | 200 | 1.6 | 3.2 | 0.00 | 0.00 | 0.00 | 71 | 1010.6 |
| 20260505034010 | 16 | 209 | 0.0 | 3.2 | 0.00 | 0.00 | 0.00 | 70 | 1010.6 |
| 20260505033508 | 16 | 211 | 0.0 | 3.2 | 0.00 | 0.00 | 0.00 | 71 | 1010.4 |
| 20260505033013 | 17 | 183 | 0.0 | 3.2 | 0.00 | 0.00 | 0.00 | 70 | 1010.2 |
| 20260505032502 | 17 | 173 | 0.0 | 3.2 | 0.00 | 0.00 | 0.00 | 69 | 1010.2 |
| 20260505032002 | 17 | 158 | 0.0 | 3.2 | 0.00 | 0.00 | 0.00 | 68 | 1010.1 |
| 20260505031507 | 17 | 158 | 0.0 | 3.2 | 0.00 | 0.00 | 0.00 | 67 | 1010.1 |
| 20260505031008 | 18 | 158 | 0.0 | 3.2 | 0.00 | 0.00 | 0.00 | 66 | 1010.1 |
| 20260505030508 | 18 | 158 | 0.0 | 3.2 | 0.00 | 0.00 | 0.00 | 65 | 1010.0 |
| 20260505030011 | 18 | 138 | 0.0 | 1.6 | 0.00 | 0.00 | 0.00 | 64 | 1010.0 |
| 20260505025504 | 18 | 138 | 0.0 | 3.2 | 0.00 | 0.00 | 0.00 | 64 | 1010.0 |
| 20260505025006 | 19 | 221 | 0.0 | 3.2 | 0.00 | 0.00 | 0.00 | 63 | 1009.9 |
| 20260505024514 | 19 | 221 | 0.0 | 1.6 | 0.00 | 0.00 | 0.00 | 63 | 1009.9 |
| 20260505024008 | 19 | 155 | 0.0 | 1.6 | 0.00 | 0.00 | 0.00 | 62 | 1009.9 |
| 20260505023508 | 19 | 155 | 0.0 | 3.2 | 0.00 | 0.00 | 0.00 | 61 | 1009.9 |
| 20260505023018 | 20 | 195 | 0.0 | 3.2 | 0.00 | 0.00 | 0.00 | 60 | 1009.8 |
| 20260505022510 | 20 | 212 | 1.6 | 3.2 | 0.00 | 0.00 | 0.00 | 59 | 1009.8 |
| 20260505022009 | 20 | 213 | 0.0 | 3.2 | 0.00 | 0.00 | 0.00 | 57 | 1009.8 |